Home > Weather > Cuiabá > Past weeks

Flag for Brazil Weather for the Past 2 Weeks in Cuiabá, Mato Grosso, Brazil

Now
82 °F

Clear.


Feels Like: 88 °F
Forecast: 77 / 95 °F
Wind: 6 mph from Northeast

Location: Cuiaba Aeroporto

Current Time: Feb 5, 2016 at 9:55:00 PM

Latest Report: Feb 5, 2016 at 9:00 PM


Visibility: 10 mi

Pressure: 29.92 "Hg

Humidity: 74%

Dew point: 73 °F

Location of CuiabáLocation

Historic Weather in Cuiabá — Graph

°F

Cuiabá Temperature Yesterday

Maximum temperature yesterday: 95 °F (at 3:00 PM)
Minimum temperature yesterday: 75 °F (at 11:00 PM)
Average temperature yesterday: 84 °F

High & Low Weather Summary for the Past Weeks

 TemperatureHumidityPressure
High97 °F (Jan 22, 3:00 PM)100% (Feb 5, 1:00 AM)30.01 "Hg (Feb 5, 1:00 AM)
Low70 °F (Feb 5, 1:00 AM)39% (Jan 22, 3:00 PM)29.18 "Hg (Jan 28, 3:00 PM)
Average82 °F74%29.86 "Hg
* Reported Jan 21 8:00 PM — Feb 5 8:00 PM, Cuiabá, Weather by CustomWeather, © 2016

Note: Actual official high and low records may vary slightly from our data, if they occured in-between our weather recording intervals... More about our weather records

Advertising

Cuiabá Weather History for the Previous 24 Hours

 ConditionsComfort  
Time TempWeatherWind HumidityBarometerVisibility
8:00 PM
Fri, Feb 5
84 °FPassing clouds.3 mph70%29.86 "HgN/A
7:00 PM88 °FPassing clouds.7 mph62%29.83 "HgN/A
6:00 PM90 °FScattered clouds.8 mph55%29.83 "HgN/A
5:00 PM91 °FScattered clouds.8 mph46%29.83 "HgN/A
4:00 PM93 °FScattered clouds.9 mph44%29.83 "HgN/A
3:00 PM93 °FScattered clouds.8 mph47%29.89 "HgN/A
2:00 PM93 °FScattered clouds.9 mph47%29.92 "HgN/A
1:00 PM91 °FScattered clouds.12 mph49%29.95 "HgN/A
12:00 PM90 °FScattered clouds.14 mph52%29.98 "HgN/A
11:00 AM86 °FScattered clouds.8 mph62%29.98 "HgN/A
10:00 AM82 °FScattered clouds.8 mph70%29.98 "HgN/A
9:00 AM79 °FPassing clouds.7 mph84%29.98 "HgN/A
8:00 AM77 °FScattered clouds.10 mph83%29.95 "HgN/A
7:00 AM75 °FPassing clouds.9 mph89%29.92 "HgN/A
6:00 AM75 °FPassing clouds.7 mph94%29.89 "HgN/A
5:00 AM75 °FPassing clouds.12 mph94%29.89 "HgN/A
4:00 AM75 °FLight rain. Partly cloudy.5 mph94%29.89 "Hg3 mi
3:00 AM75 °FLight rain. Partly cloudy.No wind89%29.89 "Hg3 mi
2:00 AM75 °FLight rain. Partly cloudy.2 mph89%29.89 "Hg3 mi
1:00 AM70 °FLight rain. Passing clouds.2 mph100%29.92 "Hg3 mi
12:00 AM75 °FLight rain. Passing clouds.3 mph89%29.92 "Hg3 mi
11:00 PM
Thu, Feb 4
75 °FPassing clouds.8 mph83%29.92 "HgN/A
10:00 PM84 °FPassing clouds.9 mph62%29.86 "Hg10 mi
9:00 PM84 °FClear.5 mph66%29.83 "Hg10 mi
Weather by CustomWeather, © 2016

See weather overviewHow to use our weather pages